Temperature
17 17 17 17 17 17 17 17 17 17 17 17 17 17 18 18 18 18 18 18 18 18 18 18 18 18 18 18 18 18 18 18 18 18 18 18 18 18 18 18 18 18 18
17 17 17 17 17 17 17 17 17 17 17 17 17 17 17 18 18 18 18 18 18 18 18 18 18 18 18 18 18 18 18 18 18 18 18 18 18 18 18 18 18 18 18
18 17 17 17 17 17 17 17 17 17 17 17 17 17 17 17 17 17 17 17 17 18 18 18 18 18 18 18 18 18 18 18 18 18 18 18 18 18 18 18 18 18 18
18 17 17 17 17 17 17 17 17 17 17 17 17 17 17 17 17 17 17 17 17 17 17 18 18 18 18 18 18 18 18 18 18 17 17 17 17 17 18 18 18 18 18
18 17 17 17 17 17 17 17 17 17 17 17 17 17 17 17 17 17 17 17 17 17 17 17 17 17 17 18 17 17 17 17 17 17 17 17 17 17 17 17 17 17 17
18 17 17 17 17 17 17 17 17 17 17 17 17 17 17 17 17 17 17 17 17 17 17 17 17 17 17 17 17 17 17 17 17 17 17 17 17 17 17 17 17 17 17
18 18 17 17 17 17 17 17 17 17 17 17 17 17 17 17 17 17 17 17 17 17 17 17 17 17 17 17 17 17 17 17 17 17 17 17 17 17 17 17 17 17 17
18 18 17 17 17 17 17 17 17 17 17 17 17 17 17 16 17 17 17 17 17 17 17 17 17 17 17 17 17 17 17 17 17 17 17 17 17 17 17 17 17 17 17
18 18 17 17 17 17 17 17 17 17 17 17 17 17 16 16 16 16 16 17 17 17 17 17 17 16 16 16 16 16 16 16 16 16 16 16 16 16 16 16 16 16 16
18 18 17 17 17 17 17 17 17 17 16 16 16 16 16 16 16 16 16 16 16 16 16 16 16 16 16 16 16 16 16 16 16 16 16 16 16 16 16 16 16 16 16
18 17 17 17 17 17 17 17 16 16 16 16 16 16 16 16 16 16 16 16 16 16 16 16 16 16 16 16 16 16 16 16 16 16 16 16 16 16 16 16 16 16 16
18 17 17 17 17 17 17 17 16 16 16 16 16 16 16 16 16 16 16 16 16 16 16 16 16 16 16 16 16 16 16 16 16 16 16 16 16 16 16 16 16 16 16
18 18 17 17 17 17 17 17 17 16 16 16 16 16 16 16 16 16 16 16 16 16 16 16 16 16 16 16 16 16 16 16 16 16 15 16 16 16 16 16 16 16 15
18 18 18 17 17 17 17 17 17 16 16 16 16 16 16 16 16 16 16 16 16 16 16 16 16 16 15 15 15 15 15 15 15 15 15 15 15 15 15 15 15 15 15
18 18 18 18 17 17 17 17 17 17 16 16 16 16 16 16 16 16 16 15 15 15 15 15 15 15 15 15 15 15 15 15 15 15 15 15 15 15 15 15 15 15 15
18 18 18 18 17 17 17 17 17 17 16 16 16 16 16 16 16 16 16 15 15 15 15 15 15 15 15 15 15 15 15 15 15 15 15 15 15 15 15 14 14 14 14
19 18 18 18 17 17 17 17 17 17 16 16 16 16 16 16 16 16 16 15 15 15 15 15 15 15 15 15 15 15 15 14 14 14 14 14 14 14 14 14 14 14 14
19 18 18 18 18 17 17 17 17 17 16 16 16 16 16 16 16 15 15 15 15 15 15 15 15 15 15 15 15 15 14 14 14 14 14 14 14 14 14 14 14 14 14
19 18 18 18 18 17 17 17 17 16 16 16 16 16 16 16 15 15 15 15 15 15 15 15 15 15 15 14 14 14 14 14 14 14 14 14 14 14 14 14 14 14 14
19 18 18 18 18 17 17 17 17 16 16 16 16 16 16 15 15 15 15 15 15 15 15 15 15 15 14 14 14 14 14 14 14 14 14 14 14 14 14 14 14 14 14
19 18 18 18 18 17 17 17 17 16 16 16 16 16 15 15 15 15 15 15 15 15 15 14 14 14 14 14 14 14 14 14 13 13 13 13 13 13 13 13 13 13 13
19 18 18 18 18 17 17 17 17 16 16 16 16 15 15 15 15 15 15 15 15 15 14 14 14 14 14 14 14 14 13 13 13 13 13 13 13 13 13 13 13 13 13
19 18 18 18 17 17 17 17 16 16 16 16 15 15 15 15 15 15 15 15 15 14 14 14 14 14 14 14 14 14 14 13 13 13 13 13 13 13 13 13 13 13 13
19 18 18 18 17 17 17 17 16 16 16 15 15 15 15 15 15 15 15 15 14 14 14 14 14 14 14 14 14 14 14 14 13 13 13 13 13 13 13 13 13 13 13
19 18 18 18 17 17 17 17 16 16 16 15 15 15 15 15 15 15 15 14 14 14 14 14 14 14 14 14 14 14 14 14 14 13 13 13 13 12 12 12 12 12 12
19 18 18 18 17 17 17 17 16 16 16 15 15 15 15 15 15 15 14 14 14 14 14 14 14 14 14 14 14 14 14 14 14 14 13 13 12 12 12 12 12 12 12
Wind_Speed
1 0 4 6 7 7 7 8 8 8 8 9 9 10 10 10 10 10 9 9 9 8 8 7 7 7 8 8 8 9 9 10 10 9 9 9 9 9 9 8 7 6 7
3 1 4 6 7 7 7 8 8 8 8 9 9 9 9 10 10 9 9 9 9 8 8 7 7 7 8 7 8 8 8 9 9 9 8 8 9 8 8 8 7 6 7
4 3 5 7 7 7 7 8 8 8 8 9 9 9 9 10 10 9 9 9 8 8 8 8 7 7 7 7 7 7 7 8 8 8 8 6 7 8 8 8 7 6 7
5 5 6 7 8 8 8 8 8 8 8 9 9 9 9 10 10 9 9 9 8 8 8 7 7 6 6 7 7 7 8 8 9 8 6 5 5 7 8 7 7 7 7
5 5 6 8 8 8 8 8 8 8 8 9 9 9 10 10 10 9 9 9 8 7 7 7 6 6 7 7 7 7 8 9 9 8 7 6 6 7 8 7 7 7 7
5 5 7 8 8 8 8 8 8 8 8 8 9 9 9 10 10 10 10 9 8 7 6 6 6 7 7 7 7 7 8 9 8 7 6 6 6 8 8 8 7 7 7
5 5 7 8 8 8 8 7 7 8 8 8 8 9 9 9 10 10 9 9 9 8 7 7 7 8 7 7 7 7 8 8 8 6 5 5 7 8 8 8 8 8 8
6 5 6 7 8 8 7 7 7 7 8 8 8 8 9 9 9 9 9 9 9 9 8 8 9 8 8 8 8 8 9 9 9 7 6 5 6 7 8 8 7 7 7
6 5 4 5 6 7 7 7 7 7 7 7 7 8 8 9 9 9 9 9 9 9 9 9 9 9 9 9 10 11 11 10 8 6 6 5 6 7 7 7 7 7 7
4 4 4 4 5 5 5 5 6 6 7 7 7 7 7 7 8 8 8 8 8 8 8 9 9 10 10 11 11 12 12 10 7 6 5 5 6 7 7 7 7 6 6
4 3 3 3 4 4 4 4 4 5 6 6 6 6 6 5 5 5 6 7 7 7 8 9 9 10 10 11 12 12 10 8 7 5 5 6 7 7 7 6 6 6 6
4 4 4 4 3 4 3 3 3 3 4 4 4 4 4 3 3 4 5 6 7 8 8 9 10 10 10 9 10 10 8 7 6 5 5 6 6 7 7 6 6 5 6
5 5 5 4 4 3 2 3 2 2 3 3 3 3 3 3 3 4 4 5 7 8 8 8 9 8 8 8 7 8 7 7 5 5 5 6 6 6 6 6 6 6 7
5 5 5 5 4 3 3 3 3 2 2 2 2 4 4 3 3 3 3 4 5 6 6 7 6 8 9 9 8 8 7 6 5 5 6 7 8 7 8 7 7 7 7
5 5 5 6 5 3 3 2 3 2 2 3 3 5 6 3 2 3 3 4 4 6 6 5 6 7 7 7 8 8 6 7 7 7 7 8 9 8 8 7 7 7 7
5 5 5 5 5 5 3 2 2 3 3 4 4 5 6 5 4 3 3 3 4 5 6 6 6 5 5 6 6 7 7 7 7 8 7 8 9 9 9 8 7 7 7
6 6 5 6 5 5 4 3 3 4 5 4 4 6 7 6 6 4 3 3 3 5 6 6 6 6 5 5 6 6 6 6 7 7 7 7 8 10 10 9 8 7 7
6 6 5 6 6 6 4 4 4 4 5 4 5 6 7 7 8 5 3 3 4 6 5 4 4 5 5 4 4 4 4 5 5 6 7 7 7 7 8 9 9 8 8
7 6 5 6 6 6 5 4 4 4 4 4 5 5 6 7 8 6 4 4 6 5 3 4 4 4 4 4 4 4 4 4 4 6 6 6 7 7 7 8 9 9 9
7 7 6 6 6 6 4 4 4 4 3 4 4 4 6 7 7 6 4 4 5 4 3 3 4 4 3 3 4 5 4 3 4 4 4 5 6 7 7 8 8 9 10
6 6 6 6 5 5 4 3 3 2 2 2 2 4 5 6 6 6 4 3 4 4 4 4 4 4 3 3 4 4 4 4 4 3 3 3 5 6 7 7 7 7 8
7 6 6 7 6 5 4 3 3 2 1 1 1 3 4 4 4 5 4 3 3 4 4 3 4 3 2 2 3 3 2 4 4 4 3 3 3 5 6 6 7 7 8
7 7 7 7 6 5 5 4 3 3 3 3 2 1 1 3 3 4 5 4 3 4 4 3 3 4 2 0 1 3 3 1 1 3 3 3 3 3 3 5 6 7 8
7 7 7 7 6 5 5 5 5 3 2 2 1 1 0 2 3 4 4 4 3 3 3 3 3 3 3 1 0 1 2 3 3 1 2 3 3 3 3 3 4 5 7
7 7 7 7 6 5 5 6 6 4 2 1 1 1 0 0 2 2 4 4 4 3 3 2 2 2 2 2 1 1 2 2 2 3 0 2 3 2 2 2 3 4 5
6 7 7 7 5 5 5 5 6 5 4 3 2 1 0 0 0 1 3 3 3 3 3 3 2 2 2 2 2 2 2 2 2 2 2 1 0 1 2 2 2 3 3
Wind_Direction
241 261 87 90 88 87 84 81 79 79 77 79 81 81 81 83 82 83 85 87 86 85 88 88 90 92 93 92 95 99 101 104 104 104 101 101 104 103 104 102 101 97 106
168 133 100 91 93 93 88 84 80 80 79 81 83 81 83 85 85 86 86 83 83 82 83 83 85 92 93 91 94 100 98 97 99 98 94 96 102 103 104 103 102 107 109
133 119 106 96 93 93 89 85 83 82 82 84 83 82 83 85 86 87 86 84 83 84 84 80 80 89 91 88 89 95 96 94 97 98 91 93 102 104 106 106 106 108 112
132 125 110 100 96 94 91 87 85 85 87 86 85 83 84 87 88 86 87 88 86 84 83 83 86 91 92 91 89 91 92 90 94 99 87 91 99 107 108 107 106 104 104
121 121 115 105 100 97 94 89 87 89 88 87 87 87 88 88 88 85 85 84 84 82 82 83 86 93 94 93 92 92 93 90 91 89 78 83 91 105 104 103 105 104 103
124 123 122 110 103 99 97 92 91 91 90 90 91 91 91 91 89 85 82 79 77 76 77 86 93 97 95 93 95 93 94 91 90 81 78 87 94 100 99 99 99 101 101
131 133 127 116 111 109 105 99 94 94 93 91 92 94 94 91 88 85 83 79 75 70 69 86 94 94 93 93 96 98 97 95 93 86 79 93 103 104 101 97 95 93 89
144 144 135 125 121 115 110 104 101 100 97 95 90 94 97 94 91 86 83 77 72 68 72 86 89 87 86 85 93 101 102 100 99 93 81 86 105 108 103 98 96 92 89
147 143 142 136 126 121 117 111 108 106 101 98 96 94 96 96 92 86 83 79 73 71 75 81 81 80 81 84 93 100 100 94 85 87 91 85 98 103 106 103 99 94 91
143 149 154 148 135 128 125 123 120 113 103 99 100 98 99 96 92 88 86 82 75 71 73 75 80 79 76 82 90 94 94 85 74 75 76 86 97 102 101 97 93 93 94
143 157 160 163 160 155 148 134 128 117 103 102 95 95 94 85 80 80 85 82 75 70 72 74 75 72 69 75 82 84 84 78 73 70 74 89 94 98 97 94 91 88 89
146 157 164 170 171 161 143 126 120 108 99 99 101 98 95 95 85 79 75 72 68 67 71 70 66 66 65 64 69 75 77 75 71 69 83 92 94 95 93 90 89 90 88
160 152 159 159 157 146 127 126 118 103 91 87 111 119 113 98 82 73 63 59 60 64 64 61 57 56 65 68 69 75 80 77 71 67 74 83 89 96 95 88 87 95 92
142 151 157 155 150 146 136 129 125 115 105 108 125 126 123 102 85 83 70 64 62 67 69 64 64 63 68 68 72 77 79 78 73 64 68 78 79 85 92 93 88 89 93
141 144 147 151 145 137 124 130 116 113 114 122 108 112 119 109 101 89 77 77 76 77 77 72 67 67 67 66 72 78 77 73 75 73 68 72 73 73 80 84 83 81 85
150 145 140 141 139 128 125 118 104 108 105 97 98 107 115 117 111 101 89 81 80 82 85 87 82 77 72 71 68 71 72 71 69 69 64 63 64 65 66 70 72 71 77
156 146 142 138 127 121 116 113 100 97 95 85 88 103 110 110 110 106 98 91 89 94 94 92 88 83 77 70 63 65 69 67 68 65 63 59 58 60 60 58 57 60 68
149 142 139 132 121 114 108 105 95 93 92 85 90 96 102 108 110 103 101 101 99 96 93 97 91 86 73 65 61 56 60 64 64 66 66 60 57 56 55 52 50 52 60
151 144 131 124 124 119 110 100 94 87 82 86 89 94 101 105 109 104 103 105 105 93 88 106 96 101 96 81 72 58 49 54 59 69 65 62 62 59 55 51 49 49 53
146 140 134 126 124 119 104 86 73 66 57 69 77 88 100 105 110 106 106 102 102 95 83 90 100 90 102 101 81 59 41 44 59 65 67 63 63 60 54 50 48 48 50
141 139 141 137 136 123 112 106 97 86 66 57 72 91 98 105 110 110 110 105 102 105 111 107 102 89 86 99 83 53 29 34 44 41 52 62 59 57 56 54 54 50 47
154 152 149 150 147 141 140 141 138 132 116 100 69 78 101 113 119 124 127 130 120 115 109 109 114 108 103 108 117 103 46 15 16 31 37 55 54 59 60 56 60 57 50
161 162 159 160 151 145 136 116 92 67 51 39 37 36 80 126 133 135 138 139 136 134 142 147 141 132 133 66 130 138 136 182 340 3 24 39 45 57 56 61 64 62 59
174 164 158 158 151 148 138 134 136 135 149 201 202 208 291 127 140 140 143 142 146 143 151 167 146 138 133 137 20 78 142 149 140 50 360 13 33 50 56 64 63 65 65
164 157 156 153 151 152 147 147 143 145 171 179 158 138 76 48 141 143 147 143 141 147 159 160 142 141 137 144 143 116 92 81 105 134 144 348 20 22 47 62 72 76 76
145 147 151 150 158 162 152 150 151 157 160 150 156 164 194 201 188 160 153 149 150 155 161 166 164 157 150 132 130 134 141 144 159 145 159 190 49 350 29 43 60 79 91
Height
1528 1527 1525 1524 1523 1522 1521 1521 1520 1519 1519 1518 1518 1518 1518 1517 1517 1517 1517 1518 1518 1518 1519 1519 1519 1519 1520 1520 1520 1520 1521 1521 1521 1522 1523 1524 1525 1525 1526 1526 1526 1526 1527
1528 1527 1525 1524 1523 1522 1522 1521 1520 1520 1519 1519 1519 1518 1518 1518 1518 1518 1518 1518 1518 1519 1519 1519 1519 1520 1520 1520 1520 1521 1521 1522 1522 1523 1524 1524 1525 1526 1526 1526 1527 1527 1527
1528 1527 1526 1524 1523 1522 1522 1521 1521 1520 1520 1519 1519 1519 1519 1519 1518 1518 1518 1518 1519 1519 1519 1519 1520 1520 1520 1520 1521 1521 1522 1522 1523 1524 1524 1525 1525 1526 1526 1526 1527 1527 1527
1529 1528 1526 1525 1524 1523 1522 1522 1521 1521 1520 1520 1520 1520 1519 1519 1519 1519 1519 1519 1519 1519 1519 1519 1519 1520 1520 1521 1521 1521 1522 1523 1523 1524 1525 1525 1526 1526 1527 1527 1527 1527 1528
1529 1528 1527 1526 1525 1524 1523 1522 1522 1521 1521 1521 1520 1520 1520 1520 1520 1519 1519 1519 1519 1519 1519 1519 1519 1519 1520 1520 1521 1521 1522 1523 1524 1524 1525 1525 1526 1526 1527 1527 1527 1528 1528
1530 1529 1528 1527 1526 1525 1524 1523 1523 1522 1522 1522 1521 1521 1521 1521 1520 1520 1520 1519 1519 1518 1517 1517 1518 1519 1520 1520 1521 1522 1522 1523 1524 1525 1525 1526 1526 1527 1527 1527 1527 1528 1528
1531 1530 1529 1528 1527 1526 1525 1525 1524 1524 1523 1523 1523 1522 1522 1522 1521 1521 1520 1520 1519 1517 1515 1514 1516 1518 1519 1520 1521 1521 1522 1523 1524 1525 1526 1526 1527 1527 1527 1528 1528 1528 1528
1532 1531 1530 1529 1528 1527 1527 1526 1526 1525 1525 1525 1524 1524 1523 1523 1523 1522 1521 1520 1519 1517 1513 1512 1516 1518 1519 1520 1520 1521 1522 1524 1524 1525 1526 1527 1527 1527 1527 1528 1528 1528 1528
1533 1532 1531 1530 1530 1529 1529 1528 1527 1527 1527 1526 1526 1525 1525 1525 1524 1523 1523 1522 1521 1519 1516 1516 1518 1519 1520 1520 1520 1521 1523 1524 1525 1526 1526 1527 1527 1527 1528 1528 1528 1528 1528
1534 1533 1533 1532 1532 1531 1530 1530 1529 1529 1528 1528 1527 1527 1526 1526 1526 1525 1524 1524 1523 1521 1520 1520 1521 1521 1521 1521 1521 1522 1524 1525 1526 1526 1527 1527 1527 1527 1528 1528 1528 1528 1528
1535 1534 1534 1533 1533 1532 1532 1531 1531 1530 1530 1530 1529 1529 1528 1527 1527 1526 1526 1525 1525 1524 1523 1523 1523 1523 1523 1523 1524 1524 1525 1526 1526 1527 1527 1527 1528 1528 1528 1528 1528 1528 1527
1535 1535 1535 1535 1534 1534 1534 1533 1533 1532 1532 1531 1530 1530 1529 1529 1528 1528 1527 1527 1526 1526 1525 1525 1525 1525 1525 1525 1525 1526 1526 1527 1527 1527 1527 1528 1528 1528 1528 1528 1528 1527 1527
1535 1536 1536 1536 1536 1535 1535 1534 1534 1534 1533 1533 1532 1532 1531 1530 1530 1529 1529 1528 1528 1527 1527 1527 1527 1527 1527 1527 1527 1527 1527 1528 1528 1528 1528 1528 1528 1528 1528 1528 1528 1527 1527
1536 1536 1536 1536 1536 1536 1536 1536 1535 1535 1535 1534 1533 1533 1532 1532 1531 1531 1530 1530 1529 1529 1529 1529 1529 1528 1528 1528 1529 1528 1528 1529 1528 1529 1529 1529 1528 1528 1528 1528 1528 1528 1527
1536 1537 1537 1537 1537 1537 1537 1537 1536 1536 1536 1535 1534 1534 1534 1533 1532 1532 1531 1531 1531 1531 1531 1531 1530 1530 1530 1530 1530 1530 1529 1529 1529 1529 1529 1529 1529 1529 1529 1528 1528 1528 1528
1537 1537 1537 1537 1537 1538 1538 1537 1537 1537 1536 1536 1535 1535 1535 1534 1534 1533 1533 1532 1532 1532 1532 1532 1532 1531 1531 1531 1531 1531 1531 1530 1530 1530 1530 1530 1530 1529 1529 1529 1529 1528 1528
1537 1537 1537 1538 1538 1538 1538 1538 1538 1538 1537 1537 1536 1536 1536 1535 1535 1535 1534 1534 1533 1533 1533 1533 1533 1533 1533 1533 1532 1532 1532 1532 1531 1531 1531 1531 1531 1530 1530 1530 1529 1529 1528
1536 1537 1538 1538 1538 1539 1539 1539 1539 1538 1538 1538 1537 1537 1536 1536 1536 1535 1535 1534 1534 1534 1534 1534 1534 1534 1534 1534 1534 1534 1534 1533 1533 1533 1532 1532 1532 1531 1531 1530 1530 1529 1528
1536 1537 1537 1538 1538 1539 1539 1539 1539 1539 1539 1539 1538 1538 1537 1537 1537 1536 1536 1536 1535 1535 1535 1535 1535 1535 1535 1535 1535 1535 1535 1534 1534 1534 1534 1533 1533 1532 1532 1531 1530 1529 1529
1536 1537 1537 1538 1538 1539 1539 1539 1539 1540 1539 1539 1539 1538 1538 1538 1538 1537 1537 1537 1536 1536 1536 1536 1536 1536 1536 1536 1536 1536 1536 1536 1536 1535 1535 1535 1534 1534 1533 1532 1531 1530 1528
1535 1536 1537 1537 1538 1538 1539 1539 1539 1539 1539 1539 1539 1539 1539 1539 1538 1538 1537 1537 1537 1537 1537 1537 1536 1536 1536 1537 1537 1537 1538 1538 1537 1537 1536 1536 1535 1535 1534 1533 1532 1530 1529
1533 1535 1536 1537 1538 1538 1539 1539 1539 1540 1540 1540 1539 1539 1539 1539 1539 1538 1538 1538 1538 1537 1537 1537 1537 1537 1537 1537 1538 1537 1538 1540 1539 1539 1538 1537 1537 1536 1535 1535 1533 1532 1530
1532 1534 1535 1536 1537 1538 1538 1539 1539 1539 1539 1539 1539 1539 1539 1539 1539 1539 1538 1538 1538 1538 1538 1538 1538 1538 1538 1538 1538 1539 1538 1538 1539 1540 1539 1539 1538 1537 1537 1536 1535 1533 1532
1531 1532 1534 1535 1537 1537 1538 1538 1538 1538 1539 1539 1539 1539 1539 1539 1539 1538 1538 1538 1538 1538 1538 1538 1538 1538 1538 1538 1538 1538 1539 1538 1539 1540 1540 1540 1539 1538 1538 1537 1536 1535 1533
1530 1531 1533 1534 1536 1537 1537 1538 1538 1538 1538 1539 1539 1539 1538 1538 1538 1538 1538 1538 1538 1538 1538 1538 1538 1538 1538 1538 1538 1538 1538 1538 1538 1539 1539 1540 1540 1539 1538 1538 1537 1536 1535
1529 1530 1532 1533 1534 1536 1537 1537 1537 1538 1538 1538 1538 1538 1538 1537 1537 1537 1537 1537 1537 1538 1538 1538 1538 1538 1538 1538 1538 1538 1538 1538 1538 1538 1538 1539 1539 1539 1539 1538 1537 1536 1535